Ocean City, MD

2:12 AM EST on January 18, 2018 (GMT -0500)
Ocean City Municipal

Weather History for KOXB - November, 2013

Change the Weather History Date:

Thursday, November 14, 2013

  Actual Average (KSBY) Record (KSBY)
Temperature  
Mean Temperature 40 °F -  
Max Temperature 55 °F 57 °F 77 °F (1985)
Min Temperature 24 °F 37 °F 22 °F (1986)
Degree Days  
Heating Degree Days 26    
Moisture  
Dew Point 25 °F    
Average Humidity 57    
Maximum Humidity 85    
Minimum Humidity 25    
Precipitation  
Precipitation 0.00 in - - ()
Sea Level Pressure  
Sea Level Pressure 30.34 in    
Wind  
Wind Speed 5 mph (SW)    
Max Wind Speed 12 mph    
Max Gust Speed 16 mph    
Visibility 10 miles    
Events      
Averages and records for this station are not official NWS values.
T = Trace of Precipitation, MM = Missing Value Source: NWS Daily Summary

Daily Weather History Graph

Daily Weather History Graph

Search for Another Location

Airport or City:

Trip Planner

Search our weather history database for the weather conditions in past years. The results will help you decide how hot, cold, wet, or windy it might be!

Date:

Astronomy

Nov. 14, 2013 Rise Set
Actual Time 6:40 AM EST 4:48 PM EST
Civil Twilight 6:12 AM EST 5:16 PM EST
Nautical Twilight 5:40 AM EST 5:48 PM EST
Astronomical Twilight 5:09 AM EST 6:19 PM EST
Moon 3:06 PM EST (11/14) 3:36 AM EST (11/14)
Length of Visible Light 11h 03m
Length of Day
10h 07m
Waxing Gibbous, 91% of the Moon is Illuminated
Nov 14
Waxing Gibbous
Nov 17
Full
Nov 25
Last Quarter
Dec 2
New
Dec 9
First Quarter

Hourly Weather History & Observations

Time (EST) Temp. Windchill Dew Point Humidity Pressure Visibility Wind Dir Wind Speed Gust Speed Precip Events Conditions
12:53 AM 26.1 °F 21.9 °F 21.0 °F 81% 30.39 in 10.0 mi SW 3.5 mph - N/A   Clear
1:53 AM 25.0 °F 20.7 °F 21.0 °F 85% 30.39 in 10.0 mi WSW 3.5 mph - N/A   Clear
2:53 AM 28.9 °F 23.9 °F 21.9 °F 75% 30.38 in 10.0 mi WSW 4.6 mph - N/A   Clear
3:53 AM 28.0 °F 22.8 °F 21.9 °F 78% 30.37 in 10.0 mi WSW 4.6 mph - N/A   Clear
4:53 AM 24.1 °F - 18.0 °F 77% 30.38 in 10.0 mi Calm Calm - N/A   Clear
5:53 AM 24.1 °F 19.7 °F 19.0 °F 81% 30.38 in 10.0 mi WSW 3.5 mph - N/A   Clear
6:53 AM 32.0 °F 25.6 °F 24.1 °F 73% 30.38 in 10.0 mi WSW 6.9 mph - N/A   Clear
7:53 AM 37.9 °F 32.1 °F 26.1 °F 62% 30.39 in 10.0 mi West 8.1 mph - N/A   Clear
8:53 AM 45.0 °F 41.8 °F 28.0 °F 52% 30.40 in 10.0 mi WSW 5.8 mph - N/A   Clear
9:53 AM 48.0 °F - 26.1 °F 42% 30.39 in 10.0 mi WSW 11.5 mph - N/A   Clear
10:53 AM 52.0 °F - 25.0 °F 35% 30.37 in 10.0 mi SW 10.4 mph - N/A   Clear
11:53 AM 51.1 °F - 30.9 °F 46% 30.34 in 10.0 mi SSW 8.1 mph - N/A   Clear
12:53 PM 55.9 °F - 19.9 °F 25% 30.31 in 10.0 mi SW 11.5 mph 16.1 mph N/A   Clear
1:53 PM 54.0 °F - 28.0 °F 37% 30.30 in 10.0 mi SSW 10.4 mph - N/A   Clear
2:53 PM 54.0 °F - 28.0 °F 37% 30.29 in 10.0 mi SSW 9.2 mph - N/A   Clear
3:53 PM 52.0 °F - 30.0 °F 43% 30.30 in 10.0 mi SW 5.8 mph - N/A   Clear
4:53 PM 48.0 °F - 25.0 °F 41% 30.30 in 10.0 mi SW 4.6 mph - N/A   Clear
5:53 PM 44.1 °F 41.5 °F 26.1 °F 49% 30.30 in 10.0 mi SW 4.6 mph - N/A   Clear
6:53 PM 33.1 °F - 25.0 °F 72% 30.30 in 10.0 mi Calm Calm - N/A   Clear
7:53 PM 32.0 °F 26.4 °F 25.0 °F 75% 30.30 in 10.0 mi SW 5.8 mph - N/A   Clear
8:53 PM 44.1 °F 40.1 °F 28.0 °F 53% 30.30 in 10.0 mi SW 6.9 mph - N/A   Clear
9:53 PM 45.0 °F 41.8 °F 27.0 °F 49% 30.30 in 10.0 mi SW 5.8 mph - N/A   Clear
10:53 PM 45.0 °F 41.8 °F 28.0 °F 52% 30.29 in 10.0 mi SW 5.8 mph - N/A   Clear
11:53 PM 45.0 °F 40.6 °F 30.0 °F 56% 30.29 in 10.0 mi SW 8.1 mph - N/A   Clear